Flag for Poland Weather past 2 weeks in Radom, Poland

Now
48 °F

Passing clouds.


Feels Like: 46 °F
Forecast: 38 / 65 °F
Wind: 5 mph from Northeast

Location: Kielce


UV Index: 3 (Moderate)

Visibility: 19 mi


Pressure: 30.30 "Hg

Humidity: 63%

Dew point: 36 °F

Location of RadomLocation

Historic Weather in Radom

°F

Radom temperature yesterday

Maximum temperature yesterday: 46 °F (at 5:00 PM)
Minimum temperature yesterday: 36 °F (at 11:00 PM)
Average temperature yesterday: 41 °F

Past Weeks' High & Low Weather Summary

 TemperatureHumidityPressure
High70 °F (Apr 8, 3:00 PM)100% (Apr 6, 11:00 AM)30.37 "Hg (Apr 6, 11:00 AM)
Low30 °F (Apr 13, 3:00 AM)32% (Apr 2, 6:00 PM)29.64 "Hg (Apr 3, 5:00 PM)
Average45 °F77%30.00 "Hg
* Reported Apr 2 10:00 AM — Apr 17 10:00 AM, Radom, Weather by CustomWeather, © 2014

Note: Actual official high and low records may vary slightly from our data, if they occured in-between our weather recording intervals... More about our weather records

Advertising

Historic Weather Conditions — Data for Previous 24 hours

 ConditionsComfort  
Time TempWeatherWind HumidityBarometerVisibility
10:00 AM
Apr 17
48 °FPassing clouds.5 mph63%30.30 "Hg19 mi
9:00 AM45 °FPassing clouds.5 mph74%30.33 "Hg18 mi
8:00 AM41 °FPassing clouds.1 mph88%30.34 "Hg7 mi
7:00 AM36 °FPassing clouds.No wind97%30.36 "Hg6 mi
6:00 AM35 °FFog.1 mph96%30.35 "Hg6 mi
5:00 AM36 °FPassing clouds.3 mph94%30.34 "Hg9 mi
4:00 AM35 °FOvercast.1 mph99%30.36 "Hg6 mi
3:00 AM35 °FOvercast.2 mph99%30.37 "Hg6 mi
2:00 AM35 °FPassing clouds.1 mph96%30.37 "Hg7 mi
1:00 AM36 °FPassing clouds.5 mph96%30.37 "Hg6 mi
12:00 AM35 °FPassing clouds.3 mph94%30.37 "Hg9 mi
11:00 PM
Apr 16
36 °FPassing clouds.1 mph92%30.36 "Hg9 mi
10:00 PM37 °FClear.3 mph87%30.36 "Hg12 mi
9:00 PM39 °FClear.3 mph82%30.35 "Hg12 mi
8:00 PM42 °FPassing clouds.5 mph72%30.33 "Hg16 mi
7:00 PM44 °FPassing clouds.3 mph65%30.31 "Hg28 mi
6:00 PM45 °FPassing clouds.5 mph61%30.30 "Hg28 mi
5:00 PM46 °FScattered clouds.7 mph57%30.29 "Hg25 mi
4:00 PM45 °FOvercast.5 mph70%30.30 "Hg22 mi
3:00 PM43 °FOvercast.5 mph84%30.30 "Hg16 mi
2:00 PM42 °FOvercast.5 mph84%30.29 "Hg19 mi
1:00 PM41 °FOvercast.5 mph89%30.29 "Hg11 mi
12:00 PM40 °FSprinkles. Low clouds.5 mph92%30.28 "Hg8 mi
11:00 AM40 °FLow clouds.5 mph91%30.26 "Hg11 mi
Weather by CustomWeather, © 2014

See weather overview